Simultaneous Nadir Overpasses (SNOs) Predictions

Prediction of SNOs between NOAA-19 and TERRA Satellite Orbit:

Table of predicted SNOs for the next 14.0 days since TLE Epoch: 5/15/2021
Index Date (NOAA-19) Time (NOAA-19) Lat,Lon (NOAA-19) SZA (NOAA-19 ) Date (TERRA) Time (TERRA) Lat,Lon (TERRA) SZA (TERRA ) Distance(km) Time Diff (sec)
1 05/15/2021 04:53:20 80.23, 139.43 63.02 05/15/2021 04:54:24 80.22, 139.50 63.04 2.07 64
2 05/15/2021 05:44:15 -80.21, -52.86 116.97 05/15/2021 05:43:51 -80.22, -52.89 116.98 1.29 24
3 05/17/2021 11:17:30 80.22, 43.76 62.52 05/17/2021 11:17:32 80.23, 43.76 62.53 1.03 2
4 05/19/2021 16:50:37 -80.24, 140.26 117.97 05/19/2021 16:51:14 -80.23, 140.35 117.95 1.93 37
5 05/19/2021 17:41:41 80.22, -52.27 62.04 05/19/2021 17:40:41 80.20, -52.31 61.99 3.02 60
6 05/21/2021 22:23:52 80.24,-122.95 61.59 05/21/2021 22:24:55 80.23,-123.08 61.59 2.53 63
7 05/21/2021 23:14:47 -80.23, 44.43 118.42 05/21/2021 23:14:22 -80.23, 44.58 118.41 2.82 25
8 05/24/2021 04:48:02 80.22, 141.28 61.17 05/24/2021 04:48:03 80.23, 141.11 61.16 3.28 1
9 05/26/2021 10:21:08 -80.24,-122.21 119.24 05/26/2021 10:21:45 -80.23,-122.31 119.25 2.38 37
10 05/26/2021 11:12:13 80.23, 45.16 60.77 05/26/2021 11:11:11 80.22, 45.28 60.74 2.65 62
11 05/28/2021 15:54:24 80.25, -25.62 60.40 05/28/2021 15:55:25 80.25, -25.55 60.42 1.46 61



Historial Predications of SNOs between NOAA-19 and TERRA
